Content
SEND FEEDBACK

Daily
Averages
Monthly
Summary
United States of America

ST. LOUIS, MISSOURI


Home > North America > United States > Missouri
Elevation: 535 feet     Latitude: 38 45N     Longitude: 090 22W

WEATHER
 
SELECT A DAY
Number of Records: 196,477;   Date Range: 1/1/95 - 8/28/14
 
SHARE

PRINT THIS DATA

[ ← Previous Day ]
WEATHER ALMANAC - JANUARY 2, 2013
[ Next Day → ]
[ °C ]   °F
Weather ElementAverageHighLow
Temperature19.5 °F33.1 °F (3:54 pm)10 °F (2:54 am)
Dewpoint11.1 °F15.1 °F (10:54 am)6.1 °F (6:54 am)
Humidity72.1 %88 % (1:54 am)43 % (3:54 pm)
Barometer30.27 in30.32 in (2:54 am)30.22 in (4:54 pm)
Wind Speed1.2 mph5.8 mph (2:54 pm)
Weather ElementAverage
Visibility9.1 mi
Wind DirectionENE (57.8 °)

Weather ElementTotal
Precipitation---
Heating Degree Days43.5 (Base 65)
Averaged from 23 records on January 2, 2013
WEATHER CONDITIONS BREAKOUT
WIND DIRECTION BREAKOUT
WEATHER BY HOUR - JANUARY 2, 2013
[ °C ]   °F
Local TimeTemperatureDewpointHumidityBarometerVisibilityWind DirectionWind SpeedGust SpeedPrecipitationEventsConditions
1:54 AM12.0 °F9.0 °F88 %30.30 in7.0 miCalmClear
2:54 AM10.0 °F7.0 °F87 %30.32 in7.0 miCalmClear
3:54 AM10.9 °F7.0 °F84 %30.30 in8.0 miCalmClear
4:54 AM10.9 °F7.0 °F84 %30.30 in7.0 miCalmClear
5:54 AM10.4 °F6.8 °F85 %30.27 in10.0 miCalmClear
6:54 AM10.0 °F6.1 °F84 %30.31 in10.0 miCalmPartly Cloudy
7:54 AM10.0 °F6.1 °F84 %30.32 in10.0 miCalmPartly Cloudy
8:54 AM12.0 °F8.1 °F84 %30.32 in6.0 miCalmMostly Cloudy
9:54 AM17.1 °F12.0 °F81 %30.31 in7.0 miCalmScattered Clouds
10:54 AM24.1 °F15.1 °F69 %30.30 in10.0 miCalmScattered Clouds
11:54 AM27.0 °F12.9 °F56 %30.27 in10.0 miCalmScattered Clouds
12:54 PM28.0 °F10.9 °F49 %30.25 in10.0 miWSW (250°)3.5 mphMostly Cloudy
1:54 PM30.9 °F12.0 °F46 %30.23 in10.0 miNW (310°)3.5 mphMostly Cloudy
2:54 PM32.0 °F12.0 °F44 %30.24 in10.0 miWSW (250°)5.8 mphScattered Clouds
3:54 PM33.1 °F12.9 °F43 %30.23 in10.0 miSouth (180°)5.8 mphClear
4:54 PM30.0 °F15.1 °F54 %30.22 in10.0 miSouth (180°)3.5 mphClear
5:54 PM25.0 °F15.1 °F66 %30.23 in10.0 miCalmPartly Cloudy
6:54 PM21.0 °F14.0 °F74 %30.25 in10.0 miCalmClear
7:54 PM23.0 °F15.1 °F72 %30.25 in10.0 miSSE (160°)4.6 mphClear
8:54 PM21.9 °F15.1 °F75 %30.26 in10.0 miCalmClear
9:54 PM18.0 °F14.0 °F84 %30.26 in9.0 miCalmClear
10:54 PM16.0 °F12.0 °F84 %30.27 in10.0 miCalmClear
11:54 PM16.0 °F10.9 °F81 %30.26 in9.0 miCalmClear
Hourly data recorded from KSUS, located miles away from St. Louis, Missouri







STORIES FROM OUR PARTNERS